Simultaneous Nadir Overpasses (SNOs) Predictions

Prediction of SNOs between AQUA and NPP Satellite Orbit:

Table of predicted SNOs for the next 14.0 days since TLE Epoch: 9/24/2016
Index Date (AQUA) Time (AQUA) Lat,Lon (AQUA) SZA (AQUA ) Date (NPP) Time (NPP) Lat,Lon (NPP) SZA (NPP ) Distance(km) Time Diff (sec)
1 09/26/2016 13:15:59 73.67,-145.92 100.77 09/26/2016 13:15:12 73.66,-145.98 100.83 2.12 47
2 09/26/2016 14:04:50 -75.52, 26.31 81.20 09/26/2016 14:05:19 -75.53, 26.38 81.25 2.30 29
3 09/29/2016 05:32:16 74.35, -28.51 101.02 09/29/2016 05:31:56 74.34, -28.54 101.05 1.14 20
4 09/29/2016 06:21:18 -75.63, 142.48 80.35 09/29/2016 06:22:15 -75.62, 142.42 80.39 2.00 57
5 10/01/2016 20:59:36 -73.53, -82.10 77.19 10/01/2016 20:58:26 -73.54, -82.06 77.14 1.44 70
6 10/01/2016 21:48:32 75.05, 89.14 101.23 10/01/2016 21:48:39 75.06, 89.17 101.21 0.90 7
7 10/04/2016 13:16:00 -73.83, 34.42 76.55 10/04/2016 13:15:18 -73.82, 34.37 76.49 1.50 42
8 10/04/2016 14:04:57 75.29,-154.36 101.94 10/04/2016 14:05:32 75.28,-154.41 101.92 1.83 35
9 10/07/2016 05:32:10 -74.78, 152.54 76.58 10/07/2016 05:31:55 -74.79, 152.61 76.59 2.18 15




NCC Satellite Simultaneous Nadir Overpasses (SNOs) Prediction Service
